Location: Étang Rond
(42.7927°N, 1.0661°E)
Time: 01:38:32
(UTC+00:00)

COSMOS 2455 - Pass Details

Date: 08 November 2025
Orbit: 897 x 910 km, 67.1° (Epoch: 07 December)

Event Time Altitude Azimuth Distance (km) Brightness Sun altitude
Exits shadow 03:45:05 26° 5° (N) 1,701 4.3 -32.1°
Drops below altitude 10° 03:47:53 10° 21° (NNE) 2,603 5.5 -31.6°
Sets 03:50:31 0° 27° (NNE) 3,549 6.4 -31.1°
